This demonstration page uses our WeatherBlox Daily Observations layout. Learn more.

Left ArrowRight Arrow

30.00354, -91.81873

Hourly Observations for August 30, 2022

Temp ( °F °C ) Dew Point ( °F °C ) Humidity (%) Winds ( mph kmh ) Pressure ( in mb ) Visibility ( mi km ) Precip ( " mm )
12:53 am 00:53 Clear 78 25.6 75 23.9 90 90 NE 3 6 29.97 1015 10 16 0.00 0.00
1:53 am 01:53 Clear 78 25.6 75 23.9 90 90 Calm 29.97 1015 10 16 0.00 0.00
2:53 am 02:53 Clear with Mist and Fog 77 25 75 23.9 94 94 Calm 29.97 1015 3 4 0.00 0.00
3:04 am 03:04 Clear 77 25 75 23.9 94 94 Calm 29.98 1015 8 13 0.00 0.00
3:53 am 03:53 Clear 77 25 75 23.9 94 94 Calm 29.98 1015 10 16 0.00 0.00
4:53 am 04:53 Clear 76 24.4 74 23.3 94 94 Calm 29.99 1016 10 16 0.00 0.00
5:53 am 05:53 Clear 76 24.4 74 23.3 94 94 Calm 29.99 1016 10 16 0.00 0.00
6:53 am 06:53 Sunny 75 23.9 73 22.8 94 94 Calm 29.99 1016 8 13 0.00 0.00
7:53 am 07:53 Sunny 81 27.2 76 24.4 85 85 Calm 30.00 1016 10 16 0.00 0.00
8:53 am 08:53 Sunny 85 29.4 78 25.6 80 80 undefined N/A 30.01 1016 10 16 0.00 0.00
9:53 am 09:53 Sunny 87 30.6 77 25 72 72 Calm 30.02 1017 10 16 0.00 0.00
10:30 am 10:30 Mostly Cloudy 88 31.1 76 24.4 68 68 Calm 30.02 1017 10 16 0.00 0.00
10:53 am 10:53 Mostly Sunny 88 31.1 76 24.4 68 68 ESE 5 7 30.02 1017 10 16 0.00 0.00
11:18 am 11:18 Mostly Cloudy 88 31.1 75 23.9 66 66 ENE 5 7 30.02 1017 10 16 0.00 0.00
11:41 am 11:41 Mostly Cloudy 89 31.7 75 23.9 63 63 NE 8 13 30.02 1016 10 16 0.00 0.00
11:53 am 11:53 Mostly Cloudy 89 31.7 75 23.9 63 63 Calm 30.02 1017 10 16 0.00 0.00
12:53 pm 12:53 Sunny 92 33.3 74 23.3 56 56 E 7 11 30.00 1016 10 16 0.00 0.00
1:53 pm 13:53 Sunny 93 33.9 73 22.8 52 52 VRB 5 7 29.98 1015 10 16 0.00 0.00
2:53 pm 14:53 Sunny 91 32.8 73 22.8 56 56 WNW 6 9 29.96 1014 10 16 0.00 0.00
3:53 pm 15:53 Sunny 92 33.3 74 23.3 56 56 NW 3 6 29.93 1014 10 16 0.00 0.00
4:53 pm 16:53 Mostly Sunny 92 33.3 74 23.3 56 56 SW 5 7 29.93 1014 10 16 0.00 0.00
5:31 pm 17:31 Mostly Cloudy with Nearby Thunderstorms 88 31.1 76 24.4 68 68 WSW 7 11 29.94 1014 10 16 0.00 0.00
5:53 pm 17:53 Mostly Cloudy 86 30 74 23.3 67 67 W 5 7 29.95 1014 10 16 0.00 0.00
6:53 pm 18:53 Partly Cloudy with Thunderstorms 83 28.3 73 22.8 72 72 W 3 6 29.96 1015 10 16 0.00 0.00
7:10 pm 19:10 Partly Cloudy with Nearby Thunderstorms 83 28.3 72 22.2 70 70 E 17 28 30.00 1016 10 16 0.00 0.00
7:21 pm 19:21 Mostly Cloudy 80 26.7 72 22.2 76 76 E 16 26 30.01 1016 10 16 0.00 0.00
7:53 pm 19:53 Partly Cloudy with Nearby Thunderstorms 76 24.4 73 22.8 91 91 S 5 7 30.00 1016 10 16 0.01 0.13
8:16 pm 20:16 Clear 77 25 72 22.2 84 84 Calm 30.02 1017 10 16 0.00 0.00
8:53 pm 20:53 Clear 77 25 73 22.8 88 88 NW 3 6 30.04 1017 10 16 0.00 0.00
9:53 pm 21:53 Clear 77 25 74 23.3 90 90 N 3 6 30.04 1017 10 16 0.00 0.00
10:53 pm 22:53 Partly Cloudy with Light Rain 77 25 72 22.2 84 84 NNW 5 7 30.03 1017 10 16 0.01 0.13
11:53 pm 23:53 Mostly Clear 76 24.4 72 22.2 88 88 Calm 30.00 1016 10 16 0.01 0.13

Powered by AerisWeather